DECAYED

RESURS P1 DEB, 60219 (Decayed)

Orbit data source: Space-Track

RESURS P1 DEB, 60219 was space debris in LEO originally from a Commonwealth of Independent States-origin launch on Tue, 25 Jun 2013 UTC launched from the Tyuratam Missile And Space Complex (TTMTR). Debris objects in space refer to the collection of defunct objects orbiting the Earth. Examples of debris include non-operational satellites, rocket bodies, and fragments generated from explosions, collisions, or faulty payload assembly.

Not visible in the next 10 days
Identifier
60219, 2013-030H
Orbit
Decayed
Country
Flag of CISCIS
Related business
Manufacturer
TSSKBP?
Mission
Decayed spacecraft
Bus & Motor
Unknown
Mass
Unknown
Launch date (UTC)
2013-06-25 (12 years ago)
Launch vehicle
Unknown
Launch site
Tyuratam Missile And Space Complex (TTMTR)
Object type
Payload
Rocket body
Debris
Shape & HBR
Unknown
Radar Cross Section
Small (<0.1 m²)

Expand to show TLE details & history
Last TLE update: 1 year ago

TLE from 1 year ago
0 RESURS P1 DEB
1 60219U 13030H   24187.54205134  .15613003  22207-5  30324-2 0  9992
2 60219  96.9583 237.8832 0017224 251.4674 108.4751 16.31324103  1391
Epoch: 2024-07-05T13:00Z
TLE epoch observation values (Epoch: 2024-07-05T13:00:33.235Z)
Latitude
-0.00004°
Longitude
118.72741°
Altitude
195.839 km
Speed
7.787 km/s
True Right ascension
15h 51m 31s
True Declination
0° 00' 00"
Sunlit
Object was in full shadow at epoch
Visualization orbit readout
Latitude
Unknown
Longitude
Unknown
Altitude
Unknown
Speed
Unknown
Apparent Right ascension
Unknown
Apparent Declination
Unknown
Sunlit
N/A
Visualization observer readout
Local Sidereal Time
23:58:22
Azimuth
Unknown
Elevation
Unknown
Doppler factor
Unknown
Orbital elements
Apogee altitude
197.089 km
Perigee altitude
174.478 km
Semi-major axis
6,563.92 km
Eccentricity
0.00172
Inclination
96.9583°
RAAN
237.8832°
Arg. of periapsis
251.4674°
True anomaly
108.66217°
Mean anomaly
108.4751°
Eccentric anomaly
108.56865°
Mean motion
4.0813 °/min
Orbital period
88.21 mins
BSTAR
0.0030324
Loading maneuver chart data...
Computing Atmospheric mass density...

Documentation

Showing up to 5 results
|